Aeroporto :
LOGIN :

Iscrizione | Disclaimer

   EN    FR    IT 

 










Sommario :    VFR   VFR Marginale   IFR   IFR Intensivo   IFR Molto Intensivo
Visibilità : 
Base nubi : 
>= 8 km
>= 3000ft
5 / 8 km
1000 / 3000 ft
1500m / 5 km
500 / 1000 ft
800 / 1500m
200 / 500 ft
< 800m
< 200 ft
Simboli :   Temporali  Nebbia  Neve Forte  Precipitazioni Forti  Vento > 20 kt
SIGMETs :   Varie  Temporali  Ghiacco  Turbolenza  Onda orograficha  Ceneri Vulcaniche






- Altitudine del aeroporto : 427 ft
- Codice IATA : CIA


LIRA - Roma Ciampino

ULTIMO METAR :
  • 280850Z VRB03KT CAVOK 22/04 Q1024

METARs OBSOLETI :
  • 280820Z 04004KT 320V060 CAVOK 21/04 Q1024
  • 280750Z 02005KT 320V080 CAVOK 21/05 Q1024
  • 280720Z 05006KT 010V080 CAVOK 20/05 Q1025
  • 280650Z 02007KT CAVOK 18/05 Q1025
  • 280620Z 03006KT 360V080 CAVOK 17/06 Q1025

TAF TAF LIRA
Valido dal 28 a 06 ore il 29 a 06 ore UTC


280500Z 2806/2906 VRB04KT CAVOK
BECMG 2808/2810 24010KT
BECMG 2818/2820 VRB04KT



MetMap, La meteo Aeronautica in un colpo d'occhio ! - Copyright ORBIFLY Dicembre 2007 - Disclaimer

ORBIFLY MET'MAP TEAM :

Programmazione e sviluppo : Alexandra Zaïnal
Concezione : Baudouin d'Aumeries
Aiuto per la programmazione : Marc-Olivier Méhu
Supporto tecnico e logistico : Manuel Goepfert
Aiuto per la traduzione : Arnaldo La Scala

Contatto : metmap@orbifly.com




FONTI E CREDITI :

   NOAA